Aérodrome :
LOGIN :

S'inscrire | Disclaimer

   EN    FR    IT 

 










Légende :    VFR   VFR Marginal   IFR   IFR Intensif   IFR Très Intensif
Visi : 
Plafond : 
>= 8 km
>= 3000ft
5 à 8 km
1000 à 3000 ft
1500m à 5 km
500 à 1000 ft
800 à 1500m
200 à 500 ft
< 800m
< 200 ft
Symboles :   Orages  Brouillard  Fortes neiges  Fortes précipitations  Vent > 20 kt
SIGMETs :   Divers  Orages  Givrage  Turbulence  Onde Orograph.  Cendres Volcan.







- Altitude de l'aérodrome : 1411 ft
- Code IATA : ZHI


LSZG - Grenchen

DERNIER METAR :
  • 181620Z AUTO 03007KT 9999 NCD 25/15 Q1021

METARs EXPIRÉS :
  • 181550Z AUTO 07005KT 020V090 9999 FEW046 SCT070 26/16 Q1021
  • 181520Z /////KT 9999 FEW045 BKN050 25/15 Q1021 NOSIG
  • 181450Z 07003KT 010V130 9999 FEW045 BKN050 27/17 Q1021 NOSIG
  • 181420Z 04004KT 340V110 9999 SCT045 26/16 Q1021 NOSIG
  • 181350Z 11005KT 080V140 9999 SCT045 25/15 Q1021 NOSIG

TAF TAF LSZG
Valide du 18 à 15h jusqu'au 19 à 00h UTC


181425Z 1815/1824 11005KT 9999 SCT045
ATIS : +41 32 396 96 33
Pas de NOTAMs connus pour ce terrain.



MET'MAP, la Météo Aéronautique d'un coup d'oeil ! - Copyright ORBIFLY Décembre 2007 - Disclaimer

ORBIFLY MET'MAP TEAM :

Programmation & Développement : Alexandra Zaïnal
Conception & Développement : Baudouin d'Aumeries
Co-Programmation & Développement : Marc-Olivier Méhu
Soutien technique & logistique : Manuel Goepfert

Contact : metmap@orbifly.com




SOURCES & CREDITS :

   NOAA